Home   Weather   Weston   Past weeks
Flag for USA

Past Weather in Weston, Connecticut, USA — Yesterday and Last 2 Weeks

Now
47 °F

Sunny.


Feels Like: 44 °F
Forecast: 58 / 35 °F
Wind: 6 mph from Northwest

Location: Danbury Municipal Airport

Current Time: Oct 19, 2019 at 11:20:10 am

Latest Report: Oct 19, 2019 at 9:53 am


Visibility: 10 mi

Pressure: 30.08 "Hg

Humidity: 66%

Dew Point: 36 °F

Location of WestonLocation

Past Weather in Weston — Graph

°F

Weston Temperature Yesterday

Maximum temperature yesterday: 58 °F (at 1:53 pm)
Minimum temperature yesterday: 44 °F (at 11:53 pm)
Average temperature yesterday: 50 °F

High & Low Weather Summary for the Past Weeks

 TemperatureHumidityPressure
High73 °F (Oct 7, 12:53 pm)97% (Oct 14, 3:53 am)30.48 "Hg (Oct 14, 3:53 am)
Low32 °F (Oct 5, 6:53 am)27% (Oct 10, 2:53 pm)29.11 "Hg (Oct 16, 11:28 pm)
Average54 °F71%30.04 "Hg
* Reported Oct 4 9:15 am — Oct 19 9:53 am, Weston. Weather by CustomWeather, © 2019

Note: Actual official high and low records may vary slightly from our data, if they occured in-between our weather recording intervals... More about our weather records

Advertising

Weston Weather History for the Previous 24 Hours

Scroll right to see more
 ConditionsComfort  
Time TempWeatherWind HumidityBarometerVisibility
9:53 am
Sat, Oct 19
47 °FSunny.6 mph66%30.08 "Hg10 mi
8:53 am42 °FSunny.7 mph79%30.08 "Hg10 mi
7:53 am33 °FSunny.5 mph96%30.07 "Hg10 mi
6:53 am32 °FClear.No wind96%30.05 "Hg10 mi
5:53 am33 °FClear.3 mph92%30.03 "Hg10 mi
4:53 am34 °FClear.No wind97%30.02 "Hg10 mi
3:53 am34 °FClear.3 mph92%30.02 "Hg10 mi
2:53 am39 °FClear.No wind76%30.02 "Hg10 mi
1:53 am41 °FClear.No wind70%30.02 "Hg10 mi
12:53 am43 °FClear.No wind65%30.01 "Hg10 mi
11:53 pm
Fri, Oct 18
44 °FClear.3 mph68%30.01 "Hg10 mi
10:53 pm45 °FPassing clouds.6 mph68%30.00 "Hg10 mi
9:53 pm47 °FOvercast.6 mph66%29.99 "Hg10 mi
8:53 pm47 °FPassing clouds.9 mph66%29.96 "Hg10 mi
7:53 pm48 °FOvercast.8 mph63%29.96 "Hg10 mi
6:53 pm49 °FPassing clouds.8 mph61%29.93 "Hg10 mi
5:53 pm50 °FOvercast.13 mph63%29.90 "Hg10 mi
4:53 pm53 °FOvercast.12 mph56%29.88 "Hg10 mi
3:53 pm54 °FPartly sunny.9 mph53%29.86 "Hg10 mi
2:53 pm55 °FPartly sunny.13 mph51%29.84 "Hg10 mi
1:53 pm58 °FPartly sunny.14 mph47%29.81 "Hg10 mi
12:53 pm57 °FPartly sunny.15 mph51%29.80 "Hg10 mi
11:53 am55 °FPassing clouds.13 mph53%29.80 "Hg10 mi
Weather by CustomWeather, © 2019

See weather overview